Location: Castillon
(43.1358°N, 0.8654°E)
Time: 19:29:39
(UTC+00:00)

Okean 1-7 Rocket - Pass Details

Date: 24 January 2021
Orbit: 615 x 650 km, 82.5° (Epoch: 28 February)

Event Time Altitude Azimuth Distance (km) Brightness Sun altitude
Rises 17:21:27 0° 172° (S) 2,942 7.2 -4.7°
Reaches altitude 10° 17:23:44 10° 166° (SSE) 2,041 6.3 -5.1°
Maximum altitude 17:28:05 48° 93° (E) 856 3.9 -5.8°
Drops below altitude 10° 17:32:29 10° 20° (NNE) 2,064 5.9 -6.6°
Sets 17:34:48 0° 14° (NNE) 2,979 6.7 -7.0°
